TimeEDT,TemperatureF,Dew PointF,Humidity,Sea Level PressureIn,VisibilityMPH,Wind Direction,Wind SpeedMPH,Gust SpeedMPH,PrecipitationIn,Events,Conditions,WindDirDegrees,DateUTC
12:15 AM,54.7,51.4,89,30.02,10.0,Calm,Calm,-,N/A,,Clear,0,2013-10-22 04:15:00
12:35 AM,54.5,51.4,89,30.02,10.0,Calm,Calm,-,N/A,,Clear,0,2013-10-22 04:35:00
12:55 AM,54.7,51.8,90,30.03,10.0,Calm,Calm,-,N/A,,Clear,0,2013-10-22 04:55:00
1:15 AM,54.5,51.8,91,30.03,10.0,Calm,Calm,-,N/A,,Clear,0,2013-10-22 05:15:00
1:35 AM,54.3,51.3,89,30.02,10.0,Calm,Calm,-,N/A,,Clear,0,2013-10-22 05:35:00
1:55 AM,54.5,51.8,91,30.02,10.0,Calm,Calm,-,N/A,,Clear,0,2013-10-22 05:55:00
2:15 AM,55.0,51.8,89,30.03,10.0,Calm,Calm,-,N/A,,Clear,0,2013-10-22 06:15:00
2:35 AM,55.2,51.8,88,30.03,10.0,Calm,Calm,-,N/A,,Clear,0,2013-10-22 06:35:00
2:55 AM,55.4,51.6,87,30.02,10.0,Calm,Calm,-,N/A,,Clear,0,2013-10-22 06:55:00
3:15 AM,55.6,51.1,85,30.02,10.0,Calm,Calm,-,N/A,,Clear,0,2013-10-22 07:15:00
3:35 AM,55.4,51.3,86,30.02,10.0,Calm,Calm,-,N/A,,Clear,0,2013-10-22 07:35:00
3:55 AM,55.6,51.6,87,30.01,10.0,Calm,Calm,-,N/A,,Clear,0,2013-10-22 07:55:00
4:15 AM,55.0,51.4,88,30.00,10.0,Calm,Calm,-,N/A,,Clear,0,2013-10-22 08:15:00
4:35 AM,55.4,51.3,86,29.99,10.0,Calm,Calm,-,N/A,,Clear,0,2013-10-22 08:35:00
4:55 AM,53.1,50.5,91,29.98,10.0,Calm,Calm,-,N/A,,Clear,0,2013-10-22 08:55:00
5:15 AM,53.6,50.9,91,29.97,10.0,Calm,Calm,-,N/A,,Clear,0,2013-10-22 09:15:00
5:35 AM,54.1,51.3,90,29.98,10.0,Calm,Calm,-,N/A,,Clear,0,2013-10-22 09:35:00
5:55 AM,53.6,51.1,91,29.97,10.0,Calm,Calm,-,N/A,,Clear,0,2013-10-22 09:55:00
6:15 AM,54.5,51.8,91,29.98,10.0,Calm,Calm,-,N/A,,Clear,0,2013-10-22 10:15:00
6:35 AM,54.5,52.0,91,29.98,10.0,Calm,Calm,-,N/A,,Clear,0,2013-10-22 10:35:00
6:55 AM,55.2,52.0,89,29.98,10.0,Calm,Calm,-,N/A,,Clear,0,2013-10-22 10:55:00
7:15 AM,55.0,52.2,90,29.98,10.0,Calm,Calm,-,N/A,,Clear,0,2013-10-22 11:15:00
7:35 AM,56.1,52.9,89,29.98,10.0,Calm,Calm,-,N/A,,Scattered Clouds,0,2013-10-22 11:35:00
7:55 AM,57.2,53.1,86,29.98,10.0,SSW,4.6,-,N/A,,Scattered Clouds,210,2013-10-22 11:55:00
8:15 AM,58.3,54.0,86,29.98,10.0,SSW,3.5,-,N/A,,Scattered Clouds,210,2013-10-22 12:15:00
8:35 AM,59.0,54.3,84,29.98,10.0,SSW,3.5,-,N/A,,Mostly Cloudy,200,2013-10-22 12:35:00
8:55 AM,59.2,54.5,84,29.98,10.0,SSW,3.5,-,N/A,,Overcast,210,2013-10-22 12:55:00
9:15 AM,59.2,54.7,85,29.98,10.0,Calm,Calm,-,N/A,,Overcast,0,2013-10-22 13:15:00
9:35 AM,59.4,55.0,86,29.98,10.0,Calm,Calm,-,N/A,,Overcast,0,2013-10-22 13:35:00
9:55 AM,59.9,55.4,85,29.98,10.0,Calm,Calm,-,N/A,,Overcast,0,2013-10-22 13:55:00
10:15 AM,60.1,55.8,86,29.98,10.0,Calm,Calm,-,N/A,,Overcast,0,2013-10-22 14:15:00
10:35 AM,60.1,55.8,86,29.97,10.0,Calm,Calm,-,N/A,,Overcast,0,2013-10-22 14:35:00
10:55 AM,60.4,56.1,86,29.97,10.0,Calm,Calm,-,N/A,,Overcast,0,2013-10-22 14:55:00
11:15 AM,61.0,55.9,83,29.96,10.0,Calm,Calm,-,N/A,,Scattered Clouds,0,2013-10-22 15:15:00
11:35 AM,61.2,56.3,84,29.95,10.0,Calm,Calm,-,N/A,,Mostly Cloudy,0,2013-10-22 15:35:00
11:55 AM,61.7,56.8,84,29.95,10.0,South,3.5,-,N/A,,Overcast,180,2013-10-22 15:55:00
12:15 PM,61.9,56.8,84,29.95,10.0,Calm,Calm,-,N/A,,Overcast,0,2013-10-22 16:15:00
12:35 PM,62.1,57.2,84,29.94,10.0,Calm,Calm,-,N/A,,Overcast,0,2013-10-22 16:35:00
12:55 PM,62.2,57.0,83,29.93,10.0,Calm,Calm,-,N/A,,Overcast,0,2013-10-22 16:55:00
1:15 PM,62.8,57.2,82,29.92,10.0,Calm,Calm,-,N/A,,Overcast,0,2013-10-22 17:15:00
1:35 PM,63.5,57.4,80,29.91,10.0,South,3.5,-,N/A,,Overcast,190,2013-10-22 17:35:00
1:55 PM,64.0,57.6,79,29.91,10.0,SSW,3.5,-,N/A,,Mostly Cloudy,210,2013-10-22 17:55:00
2:15 PM,64.4,57.6,78,29.89,10.0,Calm,Calm,-,N/A,,Overcast,0,2013-10-22 18:15:00
2:35 PM,64.8,58.1,79,29.88,10.0,Calm,Calm,-,N/A,,Overcast,0,2013-10-22 18:35:00
2:55 PM,64.6,58.1,79,29.88,10.0,Calm,Calm,-,N/A,,Overcast,0,2013-10-22 18:55:00
3:15 PM,64.8,58.5,80,29.88,10.0,Calm,Calm,-,N/A,,Overcast,0,2013-10-22 19:15:00
3:35 PM,64.9,59.0,81,29.87,10.0,Calm,Calm,-,N/A,,Overcast,0,2013-10-22 19:35:00
3:55 PM,64.9,59.0,81,29.87,10.0,SSE,3.5,-,N/A,,Overcast,160,2013-10-22 19:55:00
4:15 PM,64.9,59.2,82,29.87,10.0,Calm,Calm,-,N/A,,Overcast,0,2013-10-22 20:15:00
4:35 PM,65.3,59.4,81,29.87,10.0,Calm,Calm,-,N/A,,Overcast,0,2013-10-22 20:35:00
4:55 PM,64.9,59.9,84,29.86,10.0,Calm,Calm,-,N/A,,Overcast,0,2013-10-22 20:55:00
5:15 PM,64.9,60.1,84,29.86,10.0,Calm,Calm,-,N/A,,Overcast,0,2013-10-22 21:15:00
5:35 PM,64.6,60.1,85,29.86,10.0,Calm,Calm,-,N/A,,Overcast,0,2013-10-22 21:35:00
5:55 PM,64.0,60.1,87,29.85,10.0,Calm,Calm,-,N/A,,Overcast,0,2013-10-22 21:55:00
6:15 PM,63.7,60.1,88,29.85,10.0,Calm,Calm,-,N/A,,Overcast,0,2013-10-22 22:15:00
6:35 PM,63.9,60.1,87,29.85,10.0,Calm,Calm,-,N/A,,Overcast,0,2013-10-22 22:35:00
6:55 PM,63.1,60.1,90,29.85,10.0,Calm,Calm,-,N/A,,Overcast,0,2013-10-22 22:55:00
7:15 PM,63.0,60.1,90,29.85,10.0,Calm,Calm,-,N/A,,Overcast,0,2013-10-22 23:15:00
7:35 PM,62.6,60.1,91,29.85,7.0,Calm,Calm,-,N/A,,Overcast,0,2013-10-22 23:35:00
7:55 PM,62.6,60.3,92,29.85,7.0,Calm,Calm,-,N/A,,Overcast,0,2013-10-22 23:55:00
8:15 PM,62.6,60.3,92,29.85,7.0,SSE,4.6,-,N/A,,Overcast,160,2013-10-23 00:15:00
8:35 PM,62.4,60.1,92,29.85,7.0,SE,3.5,-,N/A,,Overcast,140,2013-10-23 00:35:00
8:55 PM,62.2,59.9,92,29.84,10.0,Calm,Calm,-,N/A,,Mostly Cloudy,0,2013-10-23 00:55:00
9:15 PM,62.6,59.4,89,29.85,10.0,Calm,Calm,-,N/A,,Scattered Clouds,0,2013-10-23 01:15:00
9:35 PM,61.9,58.6,89,29.84,10.0,SSE,5.8,-,N/A,,Scattered Clouds,150,2013-10-23 01:35:00
9:55 PM,62.6,59.0,88,29.84,10.0,Calm,Calm,-,N/A,,Mostly Cloudy,0,2013-10-23 01:55:00
10:35 PM,62.1,58.3,87,29.84,10.0,Calm,Calm,-,N/A,,Mostly Cloudy,0,2013-10-23 02:35:00
11:15 PM,61.2,58.1,90,29.83,10.0,Calm,Calm,-,N/A,,Mostly Cloudy,0,2013-10-23 03:15:00
11:35 PM,60.4,57.7,91,29.82,10.0,Calm,Calm,-,N/A,,Mostly Cloudy,0,2013-10-23 03:35:00
11:55 PM,60.4,58.1,92,29.82,7.0,Calm,Calm,-,N/A,,Scattered Clouds,0,2013-10-23 03:55:00